Location: Chevoux
(46.3801°N, 4.9476°E)
Time: 08:20:58
(UTC+00:00)

X-37B - Pass Details

Date: 24 April 2021
Orbit: 386 x 389 km, 45.0° (Epoch: 08 May)

Event Time Altitude Azimuth Distance (km) Brightness Sun altitude
Exits shadow 02:17:54 41° 108° (ESE) 575 1.5 -20.8°
Drops below altitude 10° 02:20:09 10° 94° (E) 1,415 3.9 -20.5°
Sets 02:22:13 0° 92° (E) 2,269 5.1 -20.3°
